Time,TemperatureF,DewpointF,PressureIn,WindDirection,WindDirectionDegrees,WindSpeedMPH,WindSpeedGustMPH,Humidity,HourlyPrecipIn,Conditions,Clouds,dailyrainin,SoftwareType,DateUTC
2013-05-20 00:03:00,71.0,59.0,-100.00,East,101,5.0,8.0,69,0.00,,,-99.99,,2013-05-20 04:03:00,
2013-05-20 00:13:00,71.0,61.0,-100.00,ENE,66,6.0,8.0,71,0.00,,,-99.99,,2013-05-20 04:13:00,
2013-05-20 00:23:00,70.0,59.0,-100.00,East,81,7.0,8.0,71,0.00,,,-99.99,,2013-05-20 04:23:00,
2013-05-20 00:33:00,69.0,59.0,-100.00,East,79,6.0,8.0,72,0.00,,,-99.99,,2013-05-20 04:33:00,
2013-05-20 00:42:00,69.0,59.0,-100.00,East,90,6.0,8.0,73,0.00,,,-99.99,,2013-05-20 04:42:00,
2013-05-20 00:52:00,69.0,59.0,-100.00,East,96,6.0,8.0,73,0.00,,,-99.99,,2013-05-20 04:52:00,
2013-05-20 01:02:00,68.0,59.0,-100.00,East,97,6.0,8.0,75,0.00,,,-99.99,,2013-05-20 05:02:00,
2013-05-20 01:12:00,68.0,59.0,-100.00,East,94,6.0,8.0,75,0.00,,,-99.99,,2013-05-20 05:12:00,
2013-05-20 01:22:00,68.0,59.0,-100.00,East,100,5.0,8.0,75,0.00,,,-99.99,,2013-05-20 05:22:00,
2013-05-20 01:32:00,67.0,59.0,-100.00,ESE,104,6.0,8.0,76,0.00,,,-99.99,,2013-05-20 05:32:00,
2013-05-20 01:42:00,67.0,59.0,-100.00,East,81,5.0,8.0,76,0.00,,,-99.99,,2013-05-20 05:42:00,
2013-05-20 01:51:00,69.0,61.0,-100.00,East,96,5.0,8.0,77,0.00,,,-99.99,,2013-05-20 05:51:00,
2013-05-20 02:01:00,69.0,61.0,-100.00,East,96,4.0,8.0,78,0.00,,,-99.99,,2013-05-20 06:01:00,
2013-05-20 02:11:00,68.0,61.0,-100.00,East,90,5.0,8.0,80,0.00,,,-99.99,,2013-05-20 06:11:00,
2013-05-20 02:21:00,68.0,61.0,-100.00,East,97,4.0,8.0,78,0.00,,,-99.99,,2013-05-20 06:21:00,
2013-05-20 02:32:00,68.0,61.0,-100.00,East,86,3.0,8.0,80,0.00,,,-99.99,,2013-05-20 06:32:00,
2013-05-20 02:42:00,68.0,61.0,-100.00,East,93,3.0,8.0,80,0.00,,,-99.99,,2013-05-20 06:42:00,
2013-05-20 02:52:00,68.0,61.0,-100.00,ESE,104,3.0,8.0,80,0.00,,,-99.99,,2013-05-20 06:52:00,
2013-05-20 03:00:00,67.0,61.0,-100.00,ENE,77,3.0,8.0,81,0.00,,,-99.99,,2013-05-20 07:00:00,
2013-05-20 03:02:00,67.0,61.0,-100.00,ESE,111,4.0,8.0,81,0.00,,,-99.99,,2013-05-20 07:02:00,
2013-05-20 03:12:00,68.0,61.0,-100.00,ESE,103,3.0,8.0,81,0.00,,,-99.99,,2013-05-20 07:12:00,
2013-05-20 03:21:00,67.0,61.0,-100.00,ENE,77,3.0,8.0,81,0.00,,,-99.99,,2013-05-20 07:21:00,
2013-05-20 03:32:00,67.0,61.0,-100.00,ENE,77,3.0,8.0,81,0.00,,,-99.99,,2013-05-20 07:32:00,
2013-05-20 03:42:00,67.0,61.0,-100.00,ENE,77,3.0,8.0,81,0.00,,,-99.99,,2013-05-20 07:42:00,
2013-05-20 03:52:00,67.0,61.0,-100.00,ENE,77,3.0,8.0,81,0.00,,,-99.99,,2013-05-20 07:52:00,
2013-05-20 05:02:00,66.0,61.0,-100.00,ESE,103,3.0,8.0,85,0.00,,,-99.99,,2013-05-20 09:02:00,
2013-05-20 05:12:00,66.0,61.0,-100.00,East,98,3.0,8.0,85,0.00,,,-99.99,,2013-05-20 09:12:00,
2013-05-20 05:22:00,66.0,61.0,-100.00,ENE,73,4.0,8.0,85,0.00,,,-99.99,,2013-05-20 09:22:00,
2013-05-20 05:33:00,65.0,61.0,-100.00,East,80,4.0,8.0,85,0.00,,,-99.99,,2013-05-20 09:33:00,
2013-05-20 05:43:00,65.0,59.0,-100.00,East,98,3.0,8.0,85,0.00,,,-99.99,,2013-05-20 09:43:00,
2013-05-20 05:52:00,65.0,61.0,-100.00,ESE,122,4.0,8.0,86,0.00,,,-99.99,,2013-05-20 09:52:00,
2013-05-20 06:03:00,65.0,61.0,-100.00,ESE,108,4.0,8.0,86,0.00,,,-99.99,,2013-05-20 10:03:00,
2013-05-20 06:12:00,65.0,59.0,-100.00,East,97,3.0,8.0,86,0.00,,,-99.99,,2013-05-20 10:12:00,
2013-05-20 06:22:00,65.0,59.0,-100.00,East,97,4.0,8.0,86,0.00,,,-99.99,,2013-05-20 10:22:00,
2013-05-20 06:33:00,65.0,61.0,-100.00,ESE,104,4.0,8.0,86,0.00,,,-99.99,,2013-05-20 10:33:00,
2013-05-20 06:42:00,65.0,61.0,-100.00,East,80,4.0,8.0,86,0.00,,,-99.99,,2013-05-20 10:42:00,
2013-05-20 06:52:00,66.0,61.0,-100.00,ESE,103,5.0,8.0,86,0.00,,,-99.99,,2013-05-20 10:52:00,
2013-05-20 07:02:00,66.0,61.0,-100.00,ESE,115,4.0,8.0,86,0.00,,,-99.99,,2013-05-20 11:02:00,
2013-05-20 07:12:00,66.0,61.0,-100.00,ESE,105,3.0,8.0,86,0.00,,,-99.99,,2013-05-20 11:12:00,
2013-05-20 07:21:00,64.0,59.0,-100.00,ESE,112,2.0,8.0,85,0.00,,,-99.99,,2013-05-20 11:21:00,
2013-05-20 07:32:00,64.0,59.0,-100.00,ENE,77,2.0,8.0,85,0.00,,,-99.99,,2013-05-20 11:32:00,
2013-05-20 07:42:00,64.0,59.0,-100.00,East,90,2.0,8.0,84,0.00,,,-99.99,,2013-05-20 11:42:00,
2013-05-20 07:51:00,65.0,59.0,-100.00,East,101,4.0,8.0,84,0.00,,,-99.99,,2013-05-20 11:51:00,
2013-05-20 08:01:00,66.0,59.0,-100.00,East,90,4.0,8.0,82,0.00,,,-99.99,,2013-05-20 12:01:00,
2013-05-20 08:12:00,66.0,59.0,-100.00,NE,56,3.0,8.0,81,0.00,,,-99.99,,2013-05-20 12:12:00,
2013-05-20 08:21:00,67.0,59.0,-100.00,ENE,60,4.0,8.0,81,0.00,,,-99.99,,2013-05-20 12:21:00,
2013-05-20 08:32:00,67.0,61.0,-100.00,East,80,4.0,8.0,80,0.00,,,-99.99,,2013-05-20 12:32:00,
2013-05-20 08:42:00,68.0,61.0,-100.00,East,86,6.0,8.0,78,0.00,,,-99.99,,2013-05-20 12:42:00,
2013-05-20 08:52:00,69.0,61.0,-100.00,East,100,5.0,8.0,77,0.00,,,-99.99,,2013-05-20 12:52:00,
2013-05-20 09:01:00,71.0,63.0,-100.00,East,93,4.0,8.0,77,0.00,,,-99.99,,2013-05-20 13:01:00,
2013-05-20 09:11:00,71.0,61.0,-100.00,ESE,122,4.0,8.0,75,0.00,,,-99.99,,2013-05-20 13:11:00,
2013-05-20 09:22:00,70.0,61.0,-100.00,ESE,110,5.0,8.0,75,0.00,,,-99.99,,2013-05-20 13:22:00,
2013-05-20 09:32:00,71.0,61.0,-100.00,East,96,5.0,8.0,75,0.00,,,-99.99,,2013-05-20 13:32:00,
2013-05-20 09:41:00,71.0,61.0,-100.00,ESE,103,4.0,8.0,72,0.00,,,-99.99,,2013-05-20 13:41:00,
2013-05-20 09:52:00,72.0,61.0,-100.00,East,101,5.0,8.0,72,0.00,,,-99.99,,2013-05-20 13:52:00,
2013-05-20 10:01:00,73.0,63.0,-100.00,East,81,4.0,8.0,72,0.00,,,-99.99,,2013-05-20 14:01:00,
2013-05-20 10:11:00,73.0,63.0,-100.00,East,87,6.0,8.0,71,0.00,,,-99.99,,2013-05-20 14:11:00,
2013-05-20 10:22:00,74.0,63.0,-100.00,SE,127,5.0,8.0,69,0.00,,,-99.99,,2013-05-20 14:22:00,
2013-05-20 10:32:00,75.0,63.0,-100.00,ENE,67,6.0,8.0,68,0.00,,,-99.99,,2013-05-20 14:32:00,
2013-05-20 10:42:00,74.0,63.0,-100.00,ESE,107,6.0,8.0,69,0.00,,,-99.99,,2013-05-20 14:42:00,
2013-05-20 10:52:00,75.0,63.0,-100.00,ESE,107,6.0,8.0,68,0.00,,,-99.99,,2013-05-20 14:52:00,
2013-05-20 11:01:00,76.0,64.0,-100.00,ESE,107,4.0,8.0,68,0.00,,,-99.99,,2013-05-20 15:01:00,
2013-05-20 11:12:00,76.0,63.0,-100.00,SE,131,5.0,8.0,67,0.00,,,-99.99,,2013-05-20 15:12:00,
2013-05-20 11:21:00,77.0,64.0,-100.00,ESE,107,4.0,8.0,66,2.83,,,-99.99,,2013-05-20 15:21:00,
2013-05-20 11:33:00,77.0,63.0,-100.00,ENE,69,3.0,8.0,64,0.00,,,-99.99,,2013-05-20 15:33:00,
2013-05-20 11:42:00,79.0,64.0,-100.00,NE,50,2.0,8.0,64,0.00,,,-99.99,,2013-05-20 15:42:00,
2013-05-20 11:53:00,79.0,64.0,-100.00,East,97,5.0,8.0,64,0.00,,,-99.99,,2013-05-20 15:53:00,
2013-05-20 12:03:00,80.0,64.0,-100.00,ESE,122,4.0,8.0,62,0.00,,,-99.99,,2013-05-20 16:03:00,
2013-05-20 12:13:00,78.0,63.0,-100.00,SSE,156,6.0,8.0,62,0.00,,,-99.99,,2013-05-20 16:13:00,
2013-05-20 12:23:00,78.0,64.0,-100.00,SSE,165,4.0,8.0,64,0.00,,,-99.99,,2013-05-20 16:23:00,
2013-05-20 12:33:00,80.0,64.0,-100.00,East,100,5.0,8.0,60,0.00,,,-99.99,,2013-05-20 16:33:00,
2013-05-20 12:42:00,82.0,64.0,-100.00,SSE,153,4.0,8.0,58,0.00,,,-99.99,,2013-05-20 16:42:00,
2013-05-20 12:52:00,80.0,64.0,-100.00,South,190,4.0,8.0,62,0.00,,,-99.99,,2013-05-20 16:52:00,
2013-05-20 13:02:00,81.0,64.0,-100.00,SSW,203,4.0,8.0,59,0.00,,,-99.99,,2013-05-20 17:02:00,
2013-05-20 13:12:00,81.0,64.0,-100.00,SSW,203,4.0,8.0,59,0.00,,,-99.99,,2013-05-20 17:12:00,
2013-05-20 13:22:00,83.0,64.0,-100.00,SE,129,2.0,8.0,55,0.00,,,-99.99,,2013-05-20 17:22:00,
2013-05-20 13:33:00,82.0,64.0,-100.00,SE,142,4.0,8.0,55,0.00,,,-99.99,,2013-05-20 17:33:00,
2013-05-20 13:45:00,83.0,64.0,-100.00,ESE,107,6.0,8.0,53,0.00,,,-99.99,,2013-05-20 17:45:00,
2013-05-20 13:53:00,83.0,61.0,-100.00,SE,128,5.0,8.0,50,0.00,,,-99.99,,2013-05-20 17:53:00,
2013-05-20 14:02:00,83.0,61.0,-100.00,South,169,6.0,8.0,51,0.00,,,-99.99,,2013-05-20 18:02:00,
2013-05-20 14:12:00,84.0,61.0,-100.00,South,180,6.0,8.0,49,0.00,,,-99.99,,2013-05-20 18:12:00,
2013-05-20 14:23:00,85.0,64.0,-100.00,East,83,2.0,8.0,53,0.00,,,-99.99,,2013-05-20 18:23:00,
2013-05-20 14:33:00,84.0,61.0,-100.00,SSE,152,5.0,8.0,47,0.00,,,-99.99,,2013-05-20 18:33:00,
2013-05-20 14:42:00,85.0,63.0,-100.00,East,93,3.0,8.0,49,0.00,,,-99.99,,2013-05-20 18:42:00,
2013-05-20 14:55:00,84.0,61.0,-100.00,SE,124,6.0,8.0,49,0.00,,,-99.99,,2013-05-20 18:55:00,
2013-05-20 15:04:00,85.0,61.0,-100.00,East,98,4.0,8.0,46,0.00,,,-99.99,,2013-05-20 19:04:00,
2013-05-20 15:11:00,85.0,61.0,-100.00,East,100,5.0,8.0,47,0.00,,,-99.99,,2013-05-20 19:11:00,
2013-05-20 15:21:00,85.0,63.0,-100.00,SE,135,6.0,10.0,47,0.00,,,-99.99,,2013-05-20 19:21:00,
2013-05-20 15:32:00,85.0,61.0,-100.00,East,90,4.0,10.0,46,0.00,,,-99.99,,2013-05-20 19:32:00,
2013-05-20 15:42:00,85.0,63.0,-100.00,SE,139,5.0,10.0,49,0.00,,,-99.99,,2013-05-20 19:42:00,
2013-05-20 15:52:00,86.0,61.0,-100.00,ESE,110,5.0,10.0,46,0.00,,,-99.99,,2013-05-20 19:52:00,
2013-05-20 16:01:00,86.0,61.0,-100.00,SSE,158,7.0,10.0,45,0.00,,,-99.99,,2013-05-20 20:01:00,
2013-05-20 16:12:00,85.0,61.0,-100.00,East,91,7.0,10.0,45,0.00,,,-99.99,,2013-05-20 20:12:00,
2013-05-20 16:21:00,86.0,61.0,-100.00,SSE,151,9.0,14.0,45,0.00,,,-99.99,,2013-05-20 20:21:00,
2013-05-20 16:32:00,86.0,61.0,-100.00,SSE,166,11.0,14.0,45,0.00,,,-99.99,,2013-05-20 20:32:00,
2013-05-20 16:42:00,87.0,63.0,-100.00,East,93,9.0,14.0,45,0.00,,,-99.99,,2013-05-20 20:42:00,
2013-05-20 16:52:00,86.0,61.0,-100.00,ESE,115,9.0,14.0,44,0.00,,,-99.99,,2013-05-20 20:52:00,
2013-05-20 17:01:00,88.0,63.0,-100.00,ESE,114,7.0,14.0,45,0.00,,,-99.99,,2013-05-20 21:01:00,
2013-05-20 17:11:00,87.0,63.0,-100.00,East,84,7.0,14.0,46,0.00,,,-99.99,,2013-05-20 21:11:00,
2013-05-20 17:21:00,88.0,64.0,-100.00,SE,127,7.0,14.0,46,0.00,,,-99.99,,2013-05-20 21:21:00,
2013-05-20 17:33:00,86.0,59.0,-100.00,SE,145,8.0,14.0,42,0.00,,,-99.99,,2013-05-20 21:33:00,
2013-05-20 17:43:00,89.0,64.0,-100.00,SSE,166,7.0,14.0,46,0.00,,,-99.99,,2013-05-20 21:43:00,
2013-05-20 17:53:00,87.0,61.0,-100.00,ESE,114,6.0,14.0,44,0.00,,,-99.99,,2013-05-20 21:53:00,
2013-05-20 18:02:00,87.0,61.0,-100.00,ESE,104,6.0,14.0,44,0.00,,,-99.99,,2013-05-20 22:02:00,
2013-05-20 18:13:00,89.0,64.0,-100.00,SE,141,6.0,14.0,45,0.00,,,-99.99,,2013-05-20 22:13:00,
2013-05-20 18:23:00,88.0,63.0,-100.00,SE,136,7.0,14.0,45,0.00,,,-99.99,,2013-05-20 22:23:00,
2013-05-20 18:33:00,88.0,64.0,-100.00,ESE,118,7.0,14.0,46,0.00,,,-99.99,,2013-05-20 22:33:00,
2013-05-20 18:42:00,87.0,63.0,-100.00,ENE,64,6.0,14.0,46,0.00,,,-99.99,,2013-05-20 22:42:00,
2013-05-20 18:52:00,88.0,63.0,-100.00,ESE,104,6.0,14.0,45,0.00,,,-99.99,,2013-05-20 22:52:00,
2013-05-20 19:03:00,87.0,63.0,-100.00,SSE,156,6.0,14.0,46,0.00,,,-99.99,,2013-05-20 23:03:00,
2013-05-20 19:12:00,87.0,63.0,-100.00,SE,141,5.0,14.0,47,0.00,,,-99.99,,2013-05-20 23:12:00,
2013-05-20 19:22:00,87.0,64.0,-100.00,ESE,108,8.0,14.0,49,0.00,,,-99.99,,2013-05-20 23:22:00,
2013-05-20 19:32:00,87.0,64.0,-100.00,SSE,168,9.0,14.0,49,0.00,,,-99.99,,2013-05-20 23:32:00,
2013-05-20 19:42:00,86.0,64.0,-100.00,SE,145,9.0,14.0,49,0.00,,,-99.99,,2013-05-20 23:42:00,
2013-05-20 19:52:00,86.0,64.0,-100.00,SE,145,6.0,14.0,51,0.00,,,-99.99,,2013-05-20 23:52:00,
2013-05-20 20:01:00,86.0,64.0,-100.00,SE,132,6.0,14.0,51,0.00,,,-99.99,,2013-05-21 00:01:00,
2013-05-20 20:11:00,85.0,66.0,-100.00,ESE,117,6.0,14.0,53,0.00,,,-99.99,,2013-05-21 00:11:00,
2013-05-20 20:21:00,85.0,66.0,-100.00,SE,145,4.0,4.0,54,0.00,,,-99.99,,2013-05-21 00:21:00,
2013-05-20 20:32:00,83.0,63.0,-100.00,SSE,155,5.0,6.0,53,0.00,,,-99.99,,2013-05-21 00:32:00,
2013-05-20 20:42:00,82.0,63.0,-100.00,SE,134,4.0,6.0,55,0.00,,,-99.99,,2013-05-21 00:42:00,
2013-05-20 20:52:00,81.0,63.0,-100.00,SSE,152,4.0,6.0,56,0.00,,,-99.99,,2013-05-21 00:52:00,
2013-05-20 21:01:00,81.0,64.0,-100.00,SE,127,3.0,6.0,58,0.00,,,-99.99,,2013-05-21 01:01:00,
2013-05-20 21:11:00,81.0,64.0,-100.00,SE,144,3.0,6.0,59,0.00,,,-99.99,,2013-05-21 01:11:00,
2013-05-20 21:22:00,80.0,64.0,-100.00,ESE,121,2.0,6.0,60,0.00,,,-99.99,,2013-05-21 01:22:00,
2013-05-20 21:32:00,80.0,64.0,-100.00,East,98,2.0,6.0,62,0.00,,,-99.99,,2013-05-21 01:32:00,
2013-05-20 21:42:00,79.0,64.0,-100.00,SE,142,2.0,6.0,63,0.00,,,-99.99,,2013-05-21 01:42:00,
2013-05-20 21:52:00,79.0,64.0,-100.00,SE,128,2.0,6.0,63,0.00,,,-99.99,,2013-05-21 01:52:00,
2013-05-20 22:02:00,79.0,64.0,-100.00,ESE,104,2.0,6.0,64,0.00,,,-99.99,,2013-05-21 02:02:00,
2013-05-20 22:11:00,78.0,64.0,-100.00,ESE,122,2.0,6.0,66,0.00,,,-99.99,,2013-05-21 02:11:00,
2013-05-20 22:21:00,78.0,64.0,-100.00,SE,146,2.0,6.0,66,0.00,,,-99.99,,2013-05-21 02:21:00,
2013-05-20 22:32:00,78.0,64.0,-100.00,SE,144,2.0,6.0,66,0.00,,,-99.99,,2013-05-21 02:32:00,
2013-05-20 22:42:00,78.0,64.0,-100.00,SE,131,2.0,6.0,67,0.00,,,-99.99,,2013-05-21 02:42:00,
2013-05-20 22:52:00,78.0,64.0,-100.00,SE,142,4.0,6.0,67,0.00,,,-99.99,,2013-05-21 02:52:00,
2013-05-20 23:02:00,77.0,64.0,-100.00,SE,132,2.0,6.0,68,0.00,,,-99.99,,2013-05-21 03:02:00,
2013-05-20 23:11:00,77.0,64.0,-100.00,ESE,108,2.0,6.0,68,0.00,,,-99.99,,2013-05-21 03:11:00,
2013-05-20 23:21:00,78.0,66.0,-100.00,East,98,4.0,6.0,68,0.00,,,-99.99,,2013-05-21 03:21:00,
2013-05-20 23:33:00,77.0,64.0,-100.00,SE,125,4.0,6.0,68,0.00,,,-99.99,,2013-05-21 03:33:00,
2013-05-20 23:43:00,76.0,64.0,-100.00,South,170,4.0,6.0,69,0.00,,,-99.99,,2013-05-21 03:43:00,
2013-05-20 23:53:00,76.0,64.0,-100.00,ESE,115,3.0,6.0,69,0.00,,,-99.99,,2013-05-21 03:53:00,